| time (UTC) | temp F | wind direction | speed MPH | gust MPH | rain 1hr in | rain 24hr in | rain mn in | humidity % | barometer mb |
| 20260506134515 | 37 | 359 | 1.0 | 5.0 | 0.00 | 0.00 | 0.00 | 62 | 1015.2 |
| 20260506134241 | 37 | 338 | 2.0 | 5.0 | 0.00 | 0.00 | 0.00 | 60 | 1015.2 |
| 20260506133503 | 37 | 297 | 3.0 | 7.0 | 0.00 | 0.00 | 0.00 | 60 | 1015.2 |
| 20260506132957 | 37 | 238 | 3.0 | 8.0 | 0.00 | 0.00 | 0.00 | 60 | 1015.1 |
| 20260506132451 | 37 | 334 | 2.0 | 8.0 | 0.00 | 0.00 | 0.00 | 61 | 1015.2 |
| 20260506131946 | 37 | 306 | 2.0 | 6.0 | 0.00 | 0.00 | 0.00 | 60 | 1015.1 |
| 20260506131438 | 37 | 352 | 3.0 | 6.0 | 0.00 | 0.00 | 0.00 | 60 | 1015.1 |
| 20260506131204 | 37 | 27 | 2.0 | 7.0 | 0.00 | 0.00 | 0.00 | 61 | 1015.1 |
| 20260506130426 | 37 | 339 | 2.0 | 7.0 | 0.00 | 0.00 | 0.00 | 60 | 1015.1 |
| 20260506125921 | 37 | 330 | 3.0 | 7.0 | 0.00 | 0.00 | 0.00 | 62 | 1015.0 |
| 20260506125415 | 37 | 343 | 3.0 | 7.0 | 0.00 | 0.00 | 0.00 | 65 | 1015.0 |
| 20260506124909 | 36 | 341 | 2.0 | 6.0 | 0.00 | 0.00 | 0.00 | 61 | 1014.9 |
| 20260506124404 | 36 | 333 | 2.0 | 5.0 | 0.00 | 0.00 | 0.00 | 62 | 1015.0 |
| 20260506123903 | 36 | 309 | 2.0 | 6.0 | 0.00 | 0.00 | 0.00 | 62 | 1014.9 |
| 20260506123405 | 36 | 320 | 2.0 | 6.0 | 0.00 | 0.00 | 0.00 | 61 | 1014.9 |
| 20260506122905 | 36 | 349 | 3.0 | 8.0 | 0.00 | 0.00 | 0.00 | 64 | 1014.8 |
| 20260506122637 | 36 | 343 | 4.0 | 9.0 | 0.00 | 0.00 | 0.00 | 62 | 1014.8 |
| 20260506121903 | 36 | 335 | 4.0 | 9.0 | 0.00 | 0.00 | 0.00 | 62 | 1014.7 |
| 20260506121404 | 36 | 338 | 3.0 | 9.0 | 0.00 | 0.00 | 0.00 | 64 | 1014.7 |
| 20260506120904 | 36 | 300 | 2.0 | 6.0 | 0.00 | 0.00 | 0.00 | 63 | 1014.6 |
| 20260506120635 | 36 | 344 | 2.0 | 6.0 | 0.00 | 0.00 | 0.00 | 64 | 1014.6 |
| 20260506120134 | 36 | 339 | 2.0 | 7.0 | 0.00 | 0.00 | 0.00 | 62 | 1014.5 |
| 20260506115405 | 36 | 338 | 3.0 | 7.0 | 0.00 | 0.00 | 0.00 | 64 | 1014.5 |
| 20260506114904 | 36 | 304 | 3.0 | 6.0 | 0.00 | 0.00 | 0.00 | 66 | 1014.5 |
| 20260506114405 | 36 | 354 | 3.0 | 8.0 | 0.00 | 0.00 | 0.00 | 64 | 1014.5 |
| 20260506113904 | 36 | 330 | 3.0 | 8.0 | 0.00 | 0.00 | 0.00 | 66 | 1014.4 |
| 20260506113404 | 36 | 333 | 2.0 | 7.0 | 0.00 | 0.00 | 0.00 | 66 | 1014.3 |
| 20260506112905 | 36 | 342 | 2.0 | 5.0 | 0.00 | 0.00 | 0.00 | 69 | 1014.2 |
| 20260506112359 | 36 | 353 | 2.0 | 5.0 | 0.00 | 0.00 | 0.00 | 66 | 1014.2 |
| 20260506111905 | 36 | 322 | 2.0 | 6.0 | 0.00 | 0.00 | 0.00 | 69 | 1014.0 |
| 20260506111900 | 36 | 345 | 2.0 | 6.0 | 0.00 | 0.00 | 0.00 | 67 | 1014.1 |
| 20260506110859 | 36 | 307 | 3.0 | 6.0 | 0.00 | 0.00 | 0.00 | 65 | 1014.0 |
| 20260506110358 | 36 | 336 | 3.0 | 6.0 | 0.00 | 0.00 | 0.00 | 68 | 1013.9 |
| 20260506110128 | 36 | 295 | 2.0 | 6.0 | 0.00 | 0.00 | 0.00 | 66 | 1013.9 |
| 20260506105627 | 36 | 340 | 3.0 | 7.0 | 0.00 | 0.00 | 0.00 | 65 | 1013.8 |
| 20260506104855 | 36 | 338 | 3.0 | 7.0 | 0.00 | 0.00 | 0.00 | 65 | 1013.7 |
| 20260506104355 | 36 | 6 | 2.0 | 7.0 | 0.00 | 0.00 | 0.00 | 66 | 1013.8 |
| 20260506103853 | 36 | 338 | 3.0 | 8.0 | 0.00 | 0.00 | 0.00 | 65 | 1013.8 |
| 20260506103351 | 36 | 348 | 4.0 | 8.0 | 0.00 | 0.00 | 0.00 | 65 | 1013.7 |
| 20260506102850 | 36 | 6 | 5.0 | 7.0 | 0.00 | 0.00 | 0.00 | 66 | 1013.7 |
| 20260506102351 | 37 | 334 | 5.0 | 7.0 | 0.00 | 0.00 | 0.00 | 65 | 1013.7 |
| 20260506101851 | 37 | 16 | 4.0 | 7.0 | 0.00 | 0.00 | 0.00 | 65 | 1013.7 |
| 20260506101345 | 37 | 349 | 4.0 | 7.0 | 0.00 | 0.00 | 0.00 | 65 | 1013.8 |
| 20260506100846 | 37 | 335 | 4.0 | 7.0 | 0.00 | 0.00 | 0.00 | 65 | 1013.7 |
| 20260506100345 | 37 | 345 | 4.0 | 7.0 | 0.00 | 0.00 | 0.00 | 67 | 1013.8 |
| 20260506095845 | 37 | 15 | 5.0 | 9.0 | 0.00 | 0.00 | 0.00 | 65 | 1013.7 |
| 20260506095347 | 37 | 16 | 6.0 | 9.0 | 0.00 | 0.00 | 0.00 | 69 | 1013.7 |
| 20260506094846 | 37 | 27 | 7.0 | 12.0 | 0.00 | 0.00 | 0.00 | 66 | 1013.6 |
| 20260506094347 | 37 | 32 | 7.0 | 12.0 | 0.00 | 0.00 | 0.00 | 66 | 1013.6 |
| 20260506093847 | 37 | 18 | 6.0 | 9.0 | 0.00 | 0.00 | 0.00 | 64 | 1013.6 |
| 20260506093346 | 37 | 345 | 6.0 | 9.0 | 0.00 | 0.00 | 0.00 | 65 | 1013.6 |
| 20260506092842 | 37 | 347 | 5.0 | 9.0 | 0.00 | 0.00 | 0.00 | 64 | 1013.6 |
| 20260506092342 | 37 | 354 | 4.0 | 8.0 | 0.00 | 0.00 | 0.00 | 66 | 1013.6 |
| 20260506091844 | 37 | 29 | 4.0 | 7.0 | 0.00 | 0.00 | 0.00 | 66 | 1013.6 |
| 20260506091341 | 37 | 345 | 4.0 | 7.0 | 0.00 | 0.00 | 0.00 | 66 | 1013.6 |
| 20260506091115 | 37 | 4 | 5.0 | 10.0 | 0.00 | 0.00 | 0.00 | 66 | 1013.6 |
| 20260506090342 | 37 | 359 | 6.0 | 10.0 | 0.00 | 0.00 | 0.00 | 67 | 1013.6 |
| 20260506085846 | 37 | 16 | 6.0 | 10.0 | 0.00 | 0.00 | 0.00 | 67 | 1013.6 |
| 20260506085615 | 37 | 4 | 5.0 | 9.0 | 0.00 | 0.00 | 0.00 | 67 | 1013.6 |
| 20260506084843 | 37 | 352 | 5.0 | 9.0 | 0.00 | 0.00 | 0.00 | 66 | 1013.5 |
| 20260506084342 | 37 | 21 | 5.0 | 8.0 | 0.00 | 0.00 | 0.00 | 67 | 1013.6 |
| 20260506084117 | 37 | 340 | 5.0 | 9.0 | 0.00 | 0.00 | 0.00 | 68 | 1013.4 |
| 20260506083343 | 37 | 335 | 5.0 | 9.0 | 0.00 | 0.00 | 0.00 | 67 | 1013.4 |
| 20260506082842 | 37 | 332 | 5.0 | 9.0 | 0.00 | 0.00 | 0.00 | 69 | 1013.4 |
| 20260506082342 | 37 | 12 | 5.0 | 9.0 | 0.00 | 0.00 | 0.00 | 69 | 1013.3 |
| 20260506081842 | 37 | 340 | 5.0 | 9.0 | 0.00 | 0.00 | 0.00 | 70 | 1013.3 |
| 20260506081343 | 37 | 24 | 5.0 | 8.0 | 0.00 | 0.00 | 0.00 | 68 | 1013.3 |
| 20260506080842 | 38 | 351 | 5.0 | 8.0 | 0.00 | 0.00 | 0.00 | 69 | 1013.3 |
| 20260506080612 | 38 | 16 | 5.0 | 10.0 | 0.00 | 0.00 | 0.00 | 69 | 1013.3 |
| 20260506073338 | 37 | 0 | 2.0 | 10.0 | 0.00 | 0.00 | 0.00 | 62 | 1013.3 |
| 20260506072835 | 37 | 354 | 2.0 | 10.0 | 0.00 | 0.00 | 0.00 | 61 | 1013.2 |
| 20260506072336 | 38 | 311 | 3.0 | 7.0 | 0.00 | 0.00 | 0.00 | 63 | 1013.3 |
| 20260506072110 | 38 | 317 | 3.0 | 8.0 | 0.00 | 0.00 | 0.00 | 63 | 1013.2 |
| 20260506071833 | 38 | 352 | 3.0 | 8.0 | 0.00 | 0.00 | 0.00 | 62 | 1013.2 |
| 20260506071105 | 38 | 344 | 4.0 | 9.0 | 0.00 | 0.00 | 0.00 | 63 | 1013.2 |
| 20260506070606 | 38 | 312 | 3.0 | 9.0 | 0.00 | 0.00 | 0.00 | 65 | 1013.2 |
| 20260506062255 | 38 | 300 | 3.0 | 8.0 | 0.00 | 0.00 | 0.00 | 62 | 1013.4 |
| 20260506061754 | 38 | 327 | 3.0 | 8.0 | 0.00 | 0.00 | 0.00 | 63 | 1013.3 |
| 20260506061253 | 38 | 321 | 4.0 | 8.0 | 0.00 | 0.00 | 0.00 | 62 | 1013.3 |
| 20260506060759 | 38 | 309 | 2.0 | 9.0 | 0.00 | 0.00 | 0.00 | 61 | 1013.2 |
| 20260506060754 | 38 | 318 | 4.0 | 9.0 | 0.00 | 0.00 | 0.00 | 62 | 1013.2 |
| 20260506051249 | 38 | 303 | 1.0 | 14.0 | 0.00 | 0.00 | 0.00 | 62 | 1013.1 |
| 20260506050747 | 38 | 334 | 1.0 | 5.0 | 0.00 | 0.00 | 0.00 | 59 | 1013.0 |
| 20260506050523 | 38 | 354 | 2.0 | 6.0 | 0.00 | 0.00 | 0.00 | 60 | 1012.9 |
| 20260506050248 | 38 | 326 | 2.0 | 6.0 | 0.00 | 0.00 | 0.00 | 60 | 1012.9 |
| 20260506045007 | 37 | 340 | 0.0 | 2.0 | 0.00 | 0.00 | 0.00 | 60 | 1013.0 |
| 20260506044500 | 38 | 342 | 0.0 | 2.0 | 0.00 | 0.00 | 0.00 | 59 | 1013.0 |
| 20260506043956 | 38 | 330 | 1.0 | 3.0 | 0.00 | 0.00 | 0.00 | 59 | 1013.0 |
| 20260506043218 | 38 | 297 | 1.0 | 9.0 | 0.00 | 0.00 | 0.00 | 59 | 1013.0 |
| 20260506042711 | 38 | 319 | 2.0 | 9.0 | 0.00 | 0.00 | 0.00 | 59 | 1012.9 |
| 20260506042205 | 38 | 336 | 2.0 | 6.0 | 0.00 | 0.00 | 0.00 | 61 | 1013.0 |
| 20260506041700 | 38 | 314 | 3.0 | 7.0 | 0.00 | 0.00 | 0.00 | 58 | 1013.0 |
| 20260506041154 | 38 | 337 | 3.0 | 9.0 | 0.00 | 0.00 | 0.00 | 59 | 1012.9 |
| 20260506040648 | 38 | 332 | 4.0 | 10.0 | 0.00 | 0.00 | 0.00 | 59 | 1012.9 |
| 20260506040142 | 38 | 323 | 2.0 | 10.0 | 0.00 | 0.00 | 0.00 | 59 | 1012.7 |
| 20260506035636 | 38 | 303 | 2.0 | 7.0 | 0.00 | 0.00 | 0.00 | 59 | 1012.9 |
| 20260506035130 | 38 | 288 | 4.0 | 9.0 | 0.00 | 0.00 | 0.00 | 59 | 1012.9 |
| 20260506034625 | 38 | 348 | 5.0 | 10.0 | 0.00 | 0.00 | 0.00 | 59 | 1012.9 |
| 20260506034620 | 38 | 337 | 6.0 | 13.0 | 0.00 | 0.00 | 0.00 | 61 | 1012.9 |
| 20260506033612 | 38 | 325 | 7.0 | 13.0 | 0.00 | 0.00 | 0.00 | 61 | 1013.0 |
| 20260506033106 | 38 | 319 | 5.0 | 11.0 | 0.00 | 0.00 | 0.00 | 64 | 1013.0 |
| 20260506032830 | 38 | 333 | 4.0 | 11.0 | 0.00 | 0.00 | 0.00 | 62 | 1013.0 |
| 20260506032054 | 38 | 340 | 4.0 | 11.0 | 0.00 | 0.00 | 0.00 | 62 | 1013.0 |
| 20260506031548 | 38 | 296 | 5.0 | 12.0 | 0.00 | 0.00 | 0.00 | 62 | 1013.0 |
| 20260506031312 | 38 | 339 | 5.0 | 12.0 | 0.00 | 0.00 | 0.00 | 62 | 1012.9 |
| 20260506030536 | 38 | 1 | 5.0 | 8.0 | 0.00 | 0.00 | 0.00 | 61 | 1012.9 |
| 20260506030030 | 38 | 303 | 5.0 | 9.0 | 0.00 | 0.00 | 0.00 | 60 | 1012.9 |
| 20260506025524 | 38 | 317 | 5.0 | 10.0 | 0.00 | 0.00 | 0.00 | 62 | 1012.7 |
| 20260506025018 | 38 | 316 | 4.0 | 10.0 | 0.00 | 0.00 | 0.00 | 62 | 1012.7 |
| 20260506024511 | 38 | 334 | 4.0 | 9.0 | 0.00 | 0.00 | 0.00 | 59 | 1012.7 |
| 20260506024236 | 38 | 327 | 4.0 | 9.0 | 0.00 | 0.00 | 0.00 | 63 | 1012.6 |
| 20260506023500 | 38 | 311 | 4.0 | 8.0 | 0.00 | 0.00 | 0.00 | 61 | 1012.5 |
| 20260506022954 | 38 | 326 | 3.0 | 8.0 | 0.00 | 0.00 | 0.00 | 58 | 1012.6 |
| 20260506022448 | 38 | 342 | 2.0 | 7.0 | 0.00 | 0.00 | 0.00 | 58 | 1012.5 |
| 20260506021942 | 38 | 328 | 3.0 | 9.0 | 0.00 | 0.00 | 0.00 | 57 | 1012.4 |
| 20260506021436 | 38 | 276 | 3.0 | 9.0 | 0.00 | 0.00 | 0.00 | 59 | 1012.3 |
| 20260506020930 | 39 | 318 | 4.0 | 10.0 | 0.00 | 0.00 | 0.00 | 59 | 1012.2 |
| 20260506020423 | 39 | 343 | 4.0 | 11.0 | 0.00 | 0.00 | 0.00 | 58 | 1012.1 |
| 20260506020150 | 39 | 333 | 3.0 | 11.0 | 0.00 | 0.00 | 0.00 | 56 | 1012.0 |
| 20260506015642 | 39 | 330 | 3.0 | 9.0 | 0.00 | 0.00 | 0.00 | 56 | 1011.9 |
| 20260506015238 | 39 | 323 | 6.0 | 11.0 | 0.00 | 0.00 | 0.00 | 57 | 1011.9 |
| 20260506015155 | 39 | 323 | 5.0 | 12.0 | 0.00 | 0.00 | 0.00 | 57 | 1011.8 |
| 20260506013854 | 40 | 335 | 5.0 | 12.0 | 0.00 | 0.00 | 0.00 | 57 | 1011.8 |
| 20260506013347 | 40 | 318 | 5.0 | 9.0 | 0.00 | 0.00 | 0.00 | 60 | 1011.7 |
| 20260506012842 | 40 | 345 | 5.0 | 11.0 | 0.00 | 0.00 | 0.00 | 60 | 1011.7 |
| 20260506012336 | 40 | 338 | 5.0 | 11.0 | 0.00 | 0.00 | 0.00 | 61 | 1011.6 |
| 20260506011833 | 40 | 338 | 6.0 | 15.0 | 0.00 | 0.00 | 0.00 | 60 | 1011.6 |
| 20260506011827 | 40 | 307 | 7.0 | 15.0 | 0.00 | 0.00 | 0.00 | 60 | 1011.7 |
| 20260506010825 | 40 | 332 | 7.0 | 13.0 | 0.00 | 0.00 | 0.00 | 60 | 1011.6 |
| 20260506010325 | 41 | 342 | 7.0 | 13.0 | 0.00 | 0.00 | 0.00 | 65 | 1011.5 |
| 20260506005826 | 40 | 341 | 7.0 | 13.0 | 0.00 | 0.00 | 0.00 | 60 | 1011.5 |
| 20260506005325 | 41 | 338 | 6.0 | 12.0 | 0.00 | 0.00 | 0.00 | 59 | 1011.5 |
| 20260506004825 | 41 | 326 | 6.0 | 15.0 | 0.00 | 0.00 | 0.00 | 60 | 1011.4 |
| 20260506004325 | 41 | 343 | 6.0 | 15.0 | 0.00 | 0.00 | 0.00 | 61 | 1011.3 |
| 20260506003824 | 41 | 317 | 8.0 | 15.0 | 0.00 | 0.00 | 0.00 | 60 | 1011.3 |
| 20260506003325 | 41 | 348 | 8.0 | 14.0 | 0.00 | 0.00 | 0.00 | 62 | 1011.2 |
| 20260506003055 | 42 | 3 | 7.0 | 14.0 | 0.00 | 0.00 | 0.00 | 57 | 1011.2 |
| 20260506002325 | 42 | 335 | 6.0 | 14.0 | 0.00 | 0.00 | 0.00 | 57 | 1011.1 |
| 20260506001826 | 42 | 350 | 5.0 | 14.0 | 0.00 | 0.00 | 0.00 | 56 | 1011.0 |
| 20260506001324 | 42 | 333 | 5.0 | 14.0 | 0.00 | 0.00 | 0.00 | 55 | 1011.0 |
| 20260506000825 | 42 | 321 | 4.0 | 14.0 | 0.00 | 0.00 | 0.00 | 56 | 1010.9 |
| 20260506000324 | 42 | 348 | 4.0 | 9.0 | 0.00 | 0.00 | 0.00 | 56 | 1010.9 |
| 20260505235826 | 42 | 333 | 5.0 | 10.0 | 0.00 | 0.00 | 0.00 | 54 | 1010.8 |
| 20260505235319 | 42 | 324 | 5.0 | 13.0 | 0.00 | 0.00 | 0.00 | 54 | 1010.7 |
| 20260505234814 | 43 | 341 | 4.0 | 13.0 | 0.00 | 0.00 | 0.00 | 53 | 1010.8 |
| 20260505234307 | 43 | 328 | 4.0 | 17.0 | 0.00 | 0.00 | 0.00 | 54 | 1010.6 |
| 20260505233801 | 43 | 344 | 5.0 | 17.0 | 0.00 | 0.00 | 0.00 | 54 | 1010.6 |
| 20260505233301 | 43 | 314 | 5.0 | 14.0 | 0.00 | 0.00 | 0.00 | 53 | 1010.5 |
| 20260505232801 | 43 | 335 | 5.0 | 11.0 | 0.00 | 0.00 | 0.00 | 53 | 1010.5 |
| 20260505232305 | 43 | 352 | 4.0 | 11.0 | 0.00 | 0.00 | 0.00 | 54 | 1010.6 |
| 20260505231800 | 43 | 318 | 6.0 | 15.0 | 0.00 | 0.00 | 0.00 | 53 | 1010.5 |
| 20260505231300 | 44 | 347 | 8.0 | 15.0 | 0.00 | 0.00 | 0.00 | 56 | 1010.5 |
| 20260505231032 | 44 | 307 | 8.0 | 19.0 | 0.00 | 0.00 | 0.00 | 55 | 1010.4 |
| 20260505230301 | 44 | 350 | 8.0 | 19.0 | 0.00 | 0.00 | 0.00 | 54 | 1010.4 |
| 20260505225801 | 44 | 328 | 8.0 | 16.0 | 0.00 | 0.00 | 0.00 | 52 | 1010.4 |
| 20260505225301 | 44 | 328 | 6.0 | 13.0 | 0.00 | 0.00 | 0.00 | 55 | 1010.4 |
| 20260505224800 | 44 | 337 | 6.0 | 14.0 | 0.00 | 0.00 | 0.00 | 56 | 1010.4 |
| 20260505224301 | 44 | 273 | 5.0 | 15.0 | 0.00 | 0.00 | 0.00 | 51 | 1010.3 |
| 20260505223759 | 45 | 355 | 5.0 | 15.0 | 0.00 | 0.00 | 0.00 | 51 | 1010.4 |
| 20260505223258 | 44 | 297 | 6.0 | 13.0 | 0.00 | 0.00 | 0.00 | 52 | 1010.4 |
| 20260505222759 | 44 | 336 | 5.0 | 13.0 | 0.00 | 0.00 | 0.00 | 51 | 1010.3 |
| 20260505222300 | 45 | 322 | 6.0 | 16.0 | 0.00 | 0.00 | 0.00 | 51 | 1010.3 |
| 20260505221758 | 45 | 302 | 7.0 | 17.0 | 0.00 | 0.00 | 0.00 | 50 | 1010.3 |
| 20260505221258 | 45 | 347 | 7.0 | 17.0 | 0.00 | 0.00 | 0.00 | 50 | 1010.3 |
| 20260505220759 | 45 | 338 | 5.0 | 14.0 | 0.00 | 0.00 | 0.00 | 49 | 1010.2 |
| 20260505220258 | 46 | 347 | 4.0 | 14.0 | 0.00 | 0.00 | 0.00 | 49 | 1010.1 |
| 20260505215800 | 46 | 339 | 5.0 | 17.0 | 0.00 | 0.00 | 0.00 | 48 | 1010.1 |
| 20260505215255 | 46 | 338 | 5.0 | 17.0 | 0.00 | 0.00 | 0.00 | 47 | 1010.1 |
| 20260505214755 | 46 | 342 | 5.0 | 14.0 | 0.00 | 0.00 | 0.00 | 48 | 1010.1 |
| 20260505214254 | 46 | 2 | 8.0 | 19.0 | 0.00 | 0.00 | 0.00 | 49 | 1010.0 |
| 20260505213755 | 46 | 348 | 8.0 | 19.0 | 0.00 | 0.00 | 0.00 | 49 | 1010.1 |
| 20260505213254 | 47 | 335 | 5.0 | 16.0 | 0.00 | 0.00 | 0.00 | 47 | 1010.1 |
| 20260505212754 | 46 | 316 | 6.0 | 17.0 | 0.00 | 0.00 | 0.00 | 49 | 1010.1 |
| 20260505212255 | 46 | 336 | 6.0 | 17.0 | 0.00 | 0.00 | 0.00 | 50 | 1010.2 |
| 20260505211800 | 46 | 6 | 6.0 | 17.0 | 0.00 | 0.00 | 0.00 | 52 | 1010.1 |
| 20260505211755 | 46 | 350 | 6.0 | 17.0 | 0.00 | 0.00 | 0.00 | 50 | 1010.1 |
| 20260505210751 | 45 | 317 | 6.0 | 15.0 | 0.00 | 0.00 | 0.00 | 53 | 1010.1 |
| 20260505210252 | 45 | 342 | 7.0 | 16.0 | 0.00 | 0.00 | 0.00 | 52 | 1010.1 |
| 20260505205751 | 45 | 314 | 6.0 | 16.0 | 0.00 | 0.00 | 0.00 | 51 | 1010.2 |
| 20260505205250 | 45 | 295 | 6.0 | 14.0 | 0.00 | 0.00 | 0.00 | 52 | 1010.0 |
| 20260505204750 | 45 | 302 | 8.0 | 16.0 | 0.00 | 0.00 | 0.00 | 52 | 1010.2 |
| 20260505204521 | 45 | 321 | 7.0 | 16.0 | 0.00 | 0.00 | 0.00 | 50 | 1010.1 |
| 20260505203750 | 46 | 343 | 6.0 | 13.0 | 0.00 | 0.00 | 0.00 | 51 | 1010.1 |
| 20260505203250 | 46 | 317 | 7.0 | 20.0 | 0.00 | 0.00 | 0.00 | 54 | 1010.1 |
| 20260505202752 | 46 | 308 | 6.0 | 20.0 | 0.00 | 0.00 | 0.00 | 52 | 1010.1 |
| 20260505202519 | 46 | 334 | 5.0 | 16.0 | 0.00 | 0.00 | 0.00 | 50 | 1010.1 |
| 20260505201747 | 46 | 311 | 5.0 | 16.0 | 0.00 | 0.00 | 0.00 | 48 | 1010.2 |
| 20260505201247 | 46 | 161 | 5.0 | 11.0 | 0.00 | 0.00 | 0.00 | 51 | 1010.2 |
| 20260505200748 | 46 | 335 | 4.0 | 13.0 | 0.00 | 0.00 | 0.00 | 49 | 1010.1 |
| 20260505200246 | 46 | 290 | 4.0 | 13.0 | 0.00 | 0.00 | 0.00 | 49 | 1010.1 |
| 20260505195744 | 46 | 328 | 5.0 | 12.0 | 0.00 | 0.00 | 0.00 | 48 | 1010.1 |
| 20260505195243 | 46 | 337 | 4.0 | 12.0 | 0.00 | 0.00 | 0.00 | 48 | 1010.0 |
| 20260505194741 | 46 | 0 | 4.0 | 13.0 | 0.00 | 0.00 | 0.00 | 51 | 1010.1 |
| 20260505194246 | 45 | 326 | 6.0 | 14.0 | 0.00 | 0.00 | 0.00 | 52 | 1010.1 |
| 20260505194242 | 46 | 321 | 7.0 | 14.0 | 0.00 | 0.00 | 0.00 | 50 | 1010.2 |
| 20260505193238 | 45 | 344 | 5.0 | 12.0 | 0.00 | 0.00 | 0.00 | 51 | 1010.1 |
| 20260505192738 | 45 | 344 | 5.0 | 12.0 | 0.00 | 0.00 | 0.00 | 50 | 1010.1 |
| 20260505192237 | 46 | 317 | 5.0 | 12.0 | 0.00 | 0.00 | 0.00 | 49 | 1010.2 |
| 20260505191739 | 45 | 336 | 5.0 | 12.0 | 0.00 | 0.00 | 0.00 | 47 | 1010.0 |
| 20260505191509 | 46 | 350 | 4.0 | 10.0 | 0.00 | 0.00 | 0.00 | 48 | 1010.0 |
| 20260505190732 | 46 | 39 | 4.0 | 12.0 | 0.00 | 0.00 | 0.00 | 49 | 1010.0 |
| 20260505190224 | 46 | 302 | 4.0 | 12.0 | 0.00 | 0.00 | 0.00 | 53 | 1010.1 |
| 20260505185724 | 45 | 257 | 3.0 | 10.0 | 0.00 | 0.00 | 0.00 | 50 | 1010.1 |
| 20260505185222 | 45 | 346 | 3.0 | 8.0 | 0.00 | 0.00 | 0.00 | 49 | 1010.2 |
| 20260505184722 | 46 | 303 | 3.0 | 9.0 | 0.00 | 0.00 | 0.00 | 49 | 1010.1 |
| 20260505184223 | 45 | 285 | 4.0 | 15.0 | 0.00 | 0.00 | 0.00 | 55 | 1010.1 |
| 20260505183954 | 44 | 305 | 3.0 | 15.0 | 0.00 | 0.00 | 0.00 | 53 | 1010.1 |
| 20260505183222 | 44 | 302 | 6.0 | 21.0 | 0.00 | 0.00 | 0.00 | 54 | 1010.1 |
| 20260505182722 | 44 | 309 | 8.0 | 21.0 | 0.00 | 0.00 | 0.00 | 55 | 1010.1 |
| 20260505182223 | 44 | 306 | 7.0 | 13.0 | 0.00 | 0.00 | 0.00 | 56 | 1010.0 |
| 20260505181723 | 44 | 341 | 6.0 | 14.0 | 0.00 | 0.00 | 0.00 | 51 | 1010.0 |
| 20260505181222 | 44 | 338 | 5.0 | 14.0 | 0.00 | 0.00 | 0.00 | 53 | 1010.0 |
| 20260505180723 | 44 | 308 | 5.0 | 10.0 | 0.00 | 0.00 | 0.00 | 53 | 1010.0 |
| 20260505180222 | 44 | 292 | 5.0 | 11.0 | 0.00 | 0.00 | 0.00 | 52 | 1010.1 |
| 20260505175955 | 44 | 339 | 4.0 | 13.0 | 0.00 | 0.00 | 0.00 | 51 | 1010.0 |
| 20260505175222 | 44 | 273 | 4.0 | 13.0 | 0.00 | 0.00 | 0.00 | 51 | 1009.9 |
| 20260505174722 | 44 | 289 | 4.0 | 13.0 | 0.00 | 0.00 | 0.00 | 51 | 1010.1 |
| 20260505174223 | 43 | 312 | 3.0 | 13.0 | 0.00 | 0.00 | 0.00 | 52 | 1010.1 |
| 20260505173717 | 43 | 309 | 4.0 | 11.0 | 0.00 | 0.00 | 0.00 | 54 | 1010.0 |
| 20260505173211 | 43 | 249 | 5.0 | 15.0 | 0.00 | 0.00 | 0.00 | 54 | 1010.0 |
| 20260505172704 | 43 | 347 | 5.0 | 15.0 | 0.00 | 0.00 | 0.00 | 52 | 1010.0 |
| 20260505172159 | 43 | 21 | 5.0 | 12.0 | 0.00 | 0.00 | 0.00 | 52 | 1009.9 |
| 20260505171653 | 43 | 337 | 4.0 | 11.0 | 0.00 | 0.00 | 0.00 | 54 | 1009.9 |
| 20260505171417 | 43 | 297 | 3.0 | 10.0 | 0.00 | 0.00 | 0.00 | 51 | 1010.0 |
| 20260505170640 | 44 | 261 | 3.0 | 13.0 | 0.00 | 0.00 | 0.00 | 53 | 1010.0 |
| 20260505170136 | 43 | 330 | 4.0 | 13.0 | 0.00 | 0.00 | 0.00 | 53 | 1009.9 |
| 20260505170131 | 44 | 322 | 3.0 | 10.0 | 0.00 | 0.00 | 0.00 | 52 | 1010.0 |
| 20260505165123 | 43 | 330 | 4.0 | 9.0 | 0.00 | 0.00 | 0.00 | 54 | 1009.9 |
| 20260505164617 | 42 | 330 | 5.0 | 15.0 | 0.00 | 0.00 | 0.00 | 59 | 1009.9 |
| 20260505164342 | 42 | 314 | 6.0 | 15.0 | 0.00 | 0.00 | 0.00 | 56 | 1010.0 |
| 20260505163605 | 42 | 340 | 6.0 | 15.0 | 0.00 | 0.00 | 0.00 | 56 | 1009.9 |
| 20260505163059 | 43 | 349 | 5.0 | 12.0 | 0.00 | 0.00 | 0.00 | 56 | 1009.8 |
| 20260505162552 | 43 | 312 | 5.0 | 12.0 | 0.00 | 0.00 | 0.00 | 55 | 1009.8 |
| 20260505162047 | 42 | 231 | 6.0 | 13.0 | 0.00 | 0.00 | 0.00 | 56 | 1009.8 |
| 20260505161540 | 42 | 295 | 5.0 | 13.0 | 0.00 | 0.00 | 0.00 | 54 | 1009.8 |
| 20260505161035 | 42 | 290 | 5.0 | 15.0 | 0.00 | 0.00 | 0.00 | 55 | 1009.8 |
| 20260505160528 | 42 | 314 | 5.0 | 15.0 | 0.00 | 0.00 | 0.00 | 58 | 1009.8 |
| 20260505152946 | 41 | 304 | 4.0 | 11.0 | 0.00 | 0.00 | 0.00 | 58 | 1009.5 |
| 20260505152711 | 41 | 324 | 5.0 | 18.0 | 0.00 | 0.00 | 0.00 | 59 | 1009.6 |
| 20260505151935 | 40 | 340 | 6.0 | 18.0 | 0.00 | 0.00 | 0.00 | 60 | 1009.8 |
| 20260505151429 | 40 | 329 | 6.0 | 13.0 | 0.00 | 0.00 | 0.00 | 58 | 1009.9 |
| 20260505150923 | 41 | 357 | 6.0 | 15.0 | 0.00 | 0.00 | 0.00 | 58 | 1009.8 |
| 20260505150417 | 40 | 326 | 5.0 | 15.0 | 0.00 | 0.00 | 0.00 | 61 | 1009.6 |
| 20260505140323 | 37 | 359 | 6.0 | 14.0 | 0.00 | 0.00 | 0.00 | 63 | 1009.0 |
| 20260505140317 | 37 | 335 | 6.0 | 17.0 | 0.00 | 0.00 | 0.00 | 63 | 1009.1 |